Pogoda w Łodzi

2233 UTC 23 April 2019 EPLL 232230Z 10009KT 070V130 CAVOK 12/M01 Q1015

Where pilots are born

  • Michele from Italy

    „The best”

  • Maciej from UK

    “Great place, good aircrafts and amazing atmosphere!!!”

  • Alan from Ireland

    “Fantastic flight school . Fleet of aircraft are exceptional . Instructors are second to none . I couldn't speak any higher...

22000+

Operations per year

1500+

Number of trained pilots

55+

Nationality students

Jak przystąpić do szkolenia ?